Regional Weather Roundup
Issued by NWS Kansas City/Pleasant Hill, MO

Home | Current Version | Previous Version | Text Only | Print | Product List | Glossary On
Versions: 1 2 3 4 5 6 7 8 9 10 11 12 13 14 15 16 17 18 19 20 21 22 23 24 25 26 27 28
000
ASUS43 KEAX 300310
RWREAX

WEATHER ROUNDUP FOR EASTERN KANSAS AND NORTHWEST MISSOURI
NATIONAL WEATHER SERVICE KANSAS CITY/PLEASANT HILL MO
1000 PM CDT FRI APR 29 2016

KSZ040-057-103>105-MOZ028-029-037-043-300400-
...KANSAS CITY METROPOLITAN AREA...

CITY           SKY/WX    TMP DP  RH WIND       PRES   REMARKS
K.C. INTL      CLOUDY    52  48  86 E20G28    29.81F
K.C. DOWNTOWN  CLOUDY    54  50  86 E16G23    29.80F
LEES SUMMIT    CLOUDY    53  51  93 E16G28    29.79F
OLATHE - IXD   CLOUDY    54  52  93 E16G25    29.78S
OLATHE - OJC   CLOUDY    53  51  93 E14G23    29.78S
LAWRENCE       CLOUDY    53  50  89 E15G23    29.78F

$$

MOZ001>008-011>017-020>025-030>033-038>040-044>046-053-054-300400-
...NORTHERN AND CENTRAL MISSOURI...

CITY           SKY/WX    TMP DP  RH WIND       PRES   REMARKS
ST. JOSEPH     CLOUDY    51  47  86 E15G24    29.86R
MOSBY          CLOUDY    52  50  93 E12G17    29.83F
WHITEMAN AFB   RAIN      56  56 100 SE15G32   29.79F
CLINTON        HVY RAIN  57  55  94 E15       29.85S
SEDALIA        LGT RAIN  57  55  93 E23       29.86F
WARSAW         NOT AVBL
CHILLICOTHE      N/A     51  48  89 E9G23     29.91S
KIRKSVILLE     CLOUDY    50  46  86 E17G23    29.97R

$$

MOZ041-047>049-056>058-063>065-088>090-097-300400-
...EASTERN AND SOUTHERN MISSOURI...

CITY           SKY/WX    TMP DP  RH WIND       PRES   REMARKS
ST. LOUIS INTL CLOUDY    63  53  70 E10       29.96S
SPIRIT OF STL  CLOUDY    62  54  74 E8        29.94F
COLUMBIA       LGT RAIN  58  53  84 E8G23     29.90F
JEFFERSON CITY LGT RAIN  58  54  86 E8        29.91S
ROLLA          HVY RAIN  56  55  97 E12       29.91R FOG
OSAGE BEACH    CLOUDY    55  48  76 NE8       29.92R
SPRINGFIELD    LGT RAIN  60  57  89 E10       29.81F
JOPLIN         RAIN      59  57  93 E10       29.80R FOG
WEST PLAINS    CLOUDY    60  57  89 E6        29.89R FOG

$$

IAZ060-094-KSZ022-034>040-054-083-096-NEZ052-066-093-300400-
...KANSAS...SOUTHEAST NEBRASKA AND IOWA...

CITY           SKY/WX    TMP DP  RH WIND       PRES   REMARKS
TOPEKA         LGT RAIN  53  49  86 NE8       29.81R
MANHATTAN      CLOUDY    52  47  83 E21G28    29.76S
EMPORIA        LGT RAIN  53  51  93 NE14      29.71F
CHANUTE        CLOUDY    58  54  86 E21G29    29.61F
WICHITA        CLOUDY    56  53  90 NE7       29.69F
OMAHA          CLOUDY    48  41  76 E13G21    29.95F
LINCOLN        CLOUDY    48  42  80 E21G30    29.90F
FALLS CITY     CLOUDY    50  46  86 E15G24    29.86R
LAMONI         CLOUDY    47  44  90 NE12G22   29.94F
DES MOINES     CLOUDY    50  41  71 E9        30.01R

$$





USA.gov is the U.S. government's official web portal to all federal, state and local government web resources and services.